| time (UTC) | temp F | wind direction | speed MPH | gust MPH | rain 1hr in | rain 24hr in | rain mn in | humidity % | barometer mb |
| 20260506031526 | 41 | 355 | 0.0 | 6.0 | 0.00 | 0.17 | 0.11 | 59 | 1002.3 |
| 20260506030024 | 41 | 355 | 1.0 | 8.0 | 0.00 | 0.17 | 0.11 | 58 | 1002.3 |
| 20260506024531 | 41 | 200 | 1.0 | 10.0 | 0.00 | 0.22 | 0.11 | 58 | 1002.2 |
| 20260506023020 | 42 | 216 | 2.0 | 10.0 | 0.00 | 0.22 | 0.11 | 58 | 1002.1 |
| 20260506021518 | 42 | 263 | 1.0 | 4.0 | 0.00 | 0.22 | 0.11 | 58 | 1002.0 |
| 20260506020015 | 42 | 240 | 0.0 | 3.0 | 0.00 | 0.22 | 0.11 | 58 | 1001.7 |
| 20260506014514 | 42 | 244 | 0.0 | 2.0 | 0.00 | 0.25 | 0.11 | 57 | 1001.5 |
| 20260506013013 | 43 | 269 | 1.0 | 6.0 | 0.00 | 0.25 | 0.11 | 57 | 1001.4 |
| 20260506011511 | 43 | 242 | 1.0 | 4.0 | 0.00 | 0.25 | 0.11 | 55 | 1001.3 |
| 20260506010010 | 43 | 280 | 0.0 | 1.0 | 0.00 | 0.25 | 0.11 | 56 | 1001.0 |
| 20260506004507 | 44 | 259 | 0.0 | 4.0 | 0.00 | 0.25 | 0.11 | 54 | 1000.7 |
| 20260506003005 | 44 | 264 | 0.0 | 7.0 | 0.00 | 0.25 | 0.11 | 54 | 1000.4 |
| 20260506001503 | 44 | 198 | 0.0 | 2.0 | 0.00 | 0.25 | 0.11 | 53 | 1000.2 |
| 20260506000002 | 44 | 194 | 1.0 | 7.0 | 0.00 | 0.25 | 0.11 | 52 | 1000.1 |
| 20260505234618 | 45 | 266 | 1.0 | 8.0 | 0.00 | 0.25 | 0.11 | 50 | 1000.0 |
| 20260505233059 | 45 | 251 | 2.0 | 12.0 | 0.00 | 0.25 | 0.11 | 49 | 1000.0 |
| 20260505231600 | 46 | 205 | 2.0 | 14.0 | 0.00 | 0.25 | 0.11 | 47 | 999.9 |
| 20260505230057 | 46 | 199 | 2.0 | 9.0 | 0.00 | 0.25 | 0.11 | 46 | 999.6 |
| 20260505224556 | 47 | 252 | 1.0 | 9.0 | 0.00 | 0.25 | 0.11 | 46 | 999.5 |
| 20260505223102 | 47 | 213 | 1.0 | 6.0 | 0.00 | 0.25 | 0.11 | 46 | 999.3 |
| 20260505221606 | 47 | 242 | 2.0 | 9.0 | 0.00 | 0.25 | 0.11 | 45 | 999.2 |
| 20260505220119 | 47 | 243 | 2.0 | 21.0 | 0.00 | 0.25 | 0.11 | 45 | 999.1 |
| 20260505214608 | 47 | 355 | 3.0 | 11.0 | 0.00 | 0.25 | 0.11 | 46 | 998.8 |
| 20260505213048 | 48 | 355 | 4.0 | 13.0 | 0.00 | 0.25 | 0.11 | 44 | 998.5 |
| 20260505211549 | 48 | 355 | 2.0 | 13.0 | 0.00 | 0.25 | 0.11 | 45 | 998.3 |
| 20260505210044 | 49 | 355 | 4.0 | 14.0 | 0.00 | 0.25 | 0.11 | 44 | 998.0 |
| 20260505204540 | 49 | 355 | 3.0 | 11.0 | 0.00 | 0.25 | 0.11 | 44 | 997.7 |
| 20260505203039 | 49 | 355 | 4.0 | 11.0 | 0.00 | 0.25 | 0.11 | 45 | 997.4 |
| 20260505201538 | 50 | 355 | 3.0 | 12.0 | 0.00 | 0.25 | 0.11 | 44 | 997.3 |
| 20260505200042 | 50 | 355 | 2.0 | 10.0 | 0.00 | 0.25 | 0.11 | 45 | 997.0 |
| 20260505194538 | 50 | 355 | 4.0 | 16.0 | 0.00 | 0.25 | 0.11 | 45 | 997.0 |
| 20260505193033 | 51 | 355 | 1.0 | 12.0 | 0.00 | 0.25 | 0.11 | 46 | 996.7 |
| 20260505191532 | 51 | 355 | 3.0 | 20.0 | 0.00 | 0.25 | 0.11 | 46 | 996.4 |
| 20260505190039 | 51 | 355 | 3.0 | 14.0 | 0.00 | 0.25 | 0.11 | 47 | 996.1 |
| 20260505184530 | 51 | 355 | 2.0 | 10.0 | 0.00 | 0.25 | 0.11 | 49 | 996.0 |
| 20260505183041 | 51 | 355 | 4.0 | 13.0 | 0.00 | 0.25 | 0.11 | 46 | 995.8 |
| 20260505181526 | 52 | 355 | 2.0 | 12.0 | 0.00 | 0.25 | 0.11 | 52 | 995.5 |
| 20260505180023 | 51 | 355 | 3.0 | 11.0 | 0.00 | 0.25 | 0.11 | 52 | 995.3 |
| 20260505174522 | 51 | 355 | 4.0 | 14.0 | 0.00 | 0.25 | 0.11 | 51 | 995.2 |
| 20260505173022 | 51 | 355 | 2.0 | 11.0 | 0.00 | 0.25 | 0.11 | 53 | 994.7 |
| 20260505171517 | 52 | 355 | 3.0 | 13.0 | 0.00 | 0.25 | 0.11 | 48 | 994.3 |
| 20260505170015 | 52 | 355 | 2.0 | 14.0 | 0.00 | 0.25 | 0.11 | 56 | 994.1 |
| 20260505164514 | 51 | 355 | 2.0 | 8.0 | 0.00 | 0.25 | 0.11 | 54 | 993.9 |
| 20260505163014 | 53 | 355 | 5.0 | 13.0 | 0.00 | 0.25 | 0.11 | 53 | 994.0 |
| 20260505161510 | 53 | 355 | 4.0 | 11.0 | 0.00 | 0.25 | 0.11 | 54 | 993.8 |
| 20260505153006 | 49 | 355 | 1.0 | 6.0 | 0.00 | 0.25 | 0.11 | 69 | 993.9 |
| 20260505151503 | 50 | 355 | 3.0 | 11.0 | 0.00 | 0.25 | 0.11 | 67 | 993.9 |
| 20260505124548 | 44 | 355 | 1.0 | 11.0 | 0.00 | 0.25 | 0.11 | 92 | 993.5 |
| 20260505123043 | 44 | 221 | 0.0 | 4.0 | 0.00 | 0.25 | 0.11 | 93 | 993.5 |
| 20260505121544 | 44 | 221 | 1.0 | 4.0 | 0.00 | 0.25 | 0.11 | 94 | 993.5 |
| 20260505120049 | 44 | 217 | 1.0 | 6.0 | 0.00 | 0.25 | 0.11 | 95 | 993.4 |
| 20260505114545 | 43 | 254 | 1.0 | 4.0 | 0.00 | 0.25 | 0.11 | 95 | 993.4 |
| 20260505113041 | 43 | 192 | 3.0 | 6.0 | 0.00 | 0.25 | 0.11 | 95 | 993.3 |
| 20260505111540 | 43 | 192 | 1.0 | 4.0 | 0.00 | 0.25 | 0.11 | 94 | 993.4 |
| 20260505101542 | 43 | 190 | 1.0 | 5.0 | 0.00 | 0.25 | 0.11 | 94 | 993.1 |
| 20260505100037 | 43 | 329 | 1.0 | 5.0 | 0.00 | 0.25 | 0.11 | 94 | 993.0 |
| 20260505094534 | 43 | 192 | 1.0 | 4.0 | 0.00 | 0.25 | 0.11 | 94 | 993.0 |
| 20260505093034 | 43 | 190 | 2.0 | 6.0 | 0.00 | 0.25 | 0.11 | 94 | 992.9 |
| 20260505091537 | 43 | 197 | 2.0 | 5.0 | 0.00 | 0.25 | 0.11 | 94 | 993.0 |
| 20260505090032 | 43 | 219 | 2.0 | 5.0 | 0.00 | 0.25 | 0.11 | 94 | 992.9 |
| 20260505084540 | 43 | 178 | 4.0 | 7.0 | 0.00 | 0.25 | 0.11 | 93 | 992.7 |
| 20260505083029 | 43 | 178 | 3.0 | 7.0 | 0.00 | 0.25 | 0.11 | 93 | 992.6 |
| 20260505081528 | 43 | 176 | 2.0 | 5.0 | 0.00 | 0.25 | 0.11 | 93 | 992.7 |
| 20260505080125 | 43 | 180 | 2.0 | 6.0 | 0.00 | 0.25 | 0.11 | 92 | 992.6 |
| 20260505074525 | 44 | 178 | 4.0 | 8.0 | 0.00 | 0.25 | 0.11 | 92 | 992.7 |
| 20260505073033 | 44 | 176 | 5.0 | 10.0 | 0.00 | 0.25 | 0.11 | 92 | 992.9 |
| 20260505071520 | 44 | 181 | 5.0 | 9.0 | 0.00 | 0.25 | 0.11 | 91 | 992.8 |
| 20260505070029 | 45 | 175 | 7.0 | 11.0 | 0.01 | 0.25 | 0.11 | 91 | 992.4 |
| 20260505064514 | 45 | 180 | 4.0 | 9.0 | 0.01 | 0.25 | 0.11 | 90 | 992.9 |
| 20260505063012 | 45 | 179 | 5.0 | 9.0 | 0.04 | 0.25 | 0.11 | 91 | 993.2 |
| 20260505061512 | 46 | 183 | 4.0 | 9.0 | 0.04 | 0.25 | 0.11 | 92 | 993.3 |
| 20260505060009 | 46 | 182 | 5.0 | 11.0 | 0.05 | 0.24 | 0.10 | 93 | 993.2 |
| 20260505054505 | 46 | 180 | 4.0 | 10.0 | 0.07 | 0.24 | 0.10 | 94 | 993.5 |
| 20260505053005 | 46 | 186 | 4.0 | 10.0 | 0.05 | 0.21 | 0.07 | 93 | 993.8 |
| 20260505051503 | 46 | 185 | 5.0 | 11.0 | 0.06 | 0.21 | 0.07 | 93 | 993.6 |
| 20260505041600 | 46 | 186 | 5.0 | 9.0 | 0.06 | 0.15 | 0.01 | 93 | 993.7 |
| 20260505040055 | 46 | 153 | 4.0 | 8.0 | 0.06 | 0.14 | 0.00 | 93 | 993.9 |
| 20260505034552 | 47 | 178 | 1.0 | 4.0 | 0.07 | 0.13 | 0.13 | 92 | 994.3 |
| 20260505033052 | 47 | 167 | 4.0 | 7.0 | 0.07 | 0.11 | 0.11 | 91 | 994.3 |
| 20260505031602 | 48 | 178 | 4.0 | 9.0 | 0.05 | 0.09 | 0.09 | 89 | 994.4 |